Location: Bartshausen
(51.8454°N, 9.8167°E)
Time: 23:12:48
(UTC+00:00)

Iridium 4 Rocket - Pass Details

Date: 20 February 2026
Orbit: 579 x 887 km, 86.9° (Epoch: 11 March)

Event Time Altitude Azimuth Distance (km) Brightness Sun altitude
Rises 18:18:30 0° 1° (N) 3,035 6.6 -15.2°
Reaches altitude 10° 18:20:58 10° 9° (N) 2,069 5.7 -15.6°
Maximum altitude 18:25:13 39° 79° (ENE) 930 3.5 -16.2°
Enters shadow 18:27:20 24° 133° (SE) 1,283 4.2 -16.6°
